Waskish, MN

8:16 PM CDT on May 25, 2017 (GMT -0500)
Waskish Municipal

Weather History for KVWU - November, 2012

Change the Weather History Date:

Monday, November 5, 2012

  Actual Average (KBDE) Record (KBDE)
Temperature  
Mean Temperature 33 °F -  
Max Temperature 42 °F 41 °F 75 °F (1975)
Min Temperature 24 °F 25 °F -4 °F (1951)
Degree Days  
Heating Degree Days 32    
Moisture  
Dew Point 28 °F    
Average Humidity 84    
Maximum Humidity 100    
Minimum Humidity 57    
Precipitation  
Precipitation 0.09 in - - ()
Sea Level Pressure  
Sea Level Pressure 30.08 in    
Wind  
Wind Speed 5 mph (SE)    
Max Wind Speed 12 mph    
Max Gust Speed -    
Visibility 9 miles    
Events Rain , Snow    
Averages and records for this station are not official NWS values.
T = Trace of Precipitation, MM = Missing Value Source: NWS Daily Summary

Daily Weather History Graph

Daily Weather History Graph

Search for Another Location

Airport or City:

Trip Planner

Search our weather history database for the weather conditions in past years. The results will help you decide how hot, cold, wet, or windy it might be!

Date:

Astronomy

Nov. 05, 2012 Rise Set
Actual Time 7:10 AM CST 4:52 PM CST
Civil Twilight 6:37 AM CST 5:25 PM CST
Nautical Twilight 6:00 AM CST 6:02 PM CST
Astronomical Twilight 5:23 AM CST 6:38 PM CST
Moon 10:31 PM CST (11/5) 12:31 PM CST (11/5)
Length of Visible Light 10h 48m
Length of Day
9h 41m
Waning Gibbous, 62% of the Moon is Illuminated
Nov 5
Waning Gibbous
Nov 6
Last Quarter
Nov 13
New
Nov 20
First Quarter
Nov 28
Full

Hourly Weather History & Observations

Time (CST) Temp. Windchill Dew Point Humidity Pressure Visibility Wind Dir Wind Speed Gust Speed Precip Events Conditions
12:11 AM 26.6 °F 22.6 °F 24.8 °F 93% 30.25 in 10.0 mi ENE 3.5 mph - N/A   Overcast
12:31 AM 26.6 °F 21.2 °F 24.8 °F 93% 30.24 in 10.0 mi East 4.6 mph - N/A   Overcast
12:51 AM 26.6 °F 21.2 °F 24.8 °F 93% 30.24 in 10.0 mi East 4.6 mph - N/A   Overcast
1:11 AM 26.6 °F 21.2 °F 26.6 °F 100% 30.25 in 10.0 mi East 4.6 mph - N/A   Overcast
1:31 AM 26.6 °F 22.6 °F 26.6 °F 100% 30.25 in 10.0 mi East 3.5 mph - N/A   Overcast
2:11 AM 26.6 °F 21.2 °F 24.8 °F 93% 30.25 in 10.0 mi East 4.6 mph - N/A   Overcast
2:30 AM 26.6 °F 22.6 °F 24.8 °F 93% 30.25 in 10.0 mi East 3.5 mph - N/A   Overcast
2:51 AM 26.6 °F 21.2 °F 24.8 °F 93% 30.24 in 10.0 mi East 4.6 mph - N/A   Overcast
3:11 AM 26.6 °F 21.2 °F 24.8 °F 93% 30.24 in 10.0 mi East 4.6 mph - N/A   Overcast
3:31 AM 26.6 °F 21.2 °F 24.8 °F 93% 30.24 in 10.0 mi East 4.6 mph - N/A   Overcast
3:51 AM 26.6 °F 22.6 °F 24.8 °F 93% 30.24 in 10.0 mi East 3.5 mph - N/A   Overcast
4:10 AM 26.6 °F 22.6 °F 24.8 °F 93% 30.23 in 10.0 mi East 3.5 mph - N/A   Overcast
4:31 AM 26.6 °F 21.2 °F 24.8 °F 93% 30.23 in 10.0 mi East 4.6 mph - N/A   Overcast
4:51 AM 26.6 °F 21.2 °F 24.8 °F 93% 30.22 in 10.0 mi East 4.6 mph - N/A   Overcast
5:11 AM 26.6 °F 22.6 °F 24.8 °F 93% 30.22 in 10.0 mi East 3.5 mph - N/A   Overcast
5:31 AM 26.6 °F 22.6 °F 24.8 °F 93% 30.22 in 10.0 mi East 3.5 mph - N/A   Overcast
5:51 AM 24.8 °F 20.5 °F 24.8 °F 100% 30.22 in 10.0 mi East 3.5 mph - N/A   Overcast
6:11 AM 24.8 °F 20.5 °F 24.8 °F 100% 30.21 in 10.0 mi East 3.5 mph - N/A   Overcast
6:31 AM 24.8 °F - 24.8 °F 100% 30.21 in 10.0 mi Calm Calm - N/A   Overcast
6:51 AM 24.8 °F 20.5 °F 24.8 °F 100% 30.20 in 10.0 mi East 3.5 mph - N/A   Overcast
7:11 AM 24.8 °F 20.5 °F 23.0 °F 93% 30.20 in 10.0 mi East 3.5 mph - N/A   Overcast
7:31 AM 24.8 °F - 24.8 °F 100% 30.20 in 10.0 mi Calm Calm - N/A   Overcast
7:50 AM 26.6 °F 22.6 °F 24.8 °F 93% 30.19 in 10.0 mi ESE 3.5 mph - N/A   Overcast
8:11 AM 26.6 °F 22.6 °F 24.8 °F 93% 30.20 in 10.0 mi ESE 3.5 mph - N/A   Overcast
8:31 AM 28.4 °F 23.3 °F 26.6 °F 93% 30.20 in 10.0 mi ESE 4.6 mph - N/A   Overcast
8:51 AM 28.4 °F 23.3 °F 26.6 °F 93% 30.19 in 10.0 mi ESE 4.6 mph - N/A   Overcast
9:11 AM 30.2 °F 25.4 °F 28.4 °F 93% 30.19 in 10.0 mi ESE 4.6 mph - N/A   Overcast
9:30 AM 30.2 °F 26.7 °F 28.4 °F 93% 30.18 in 10.0 mi SE 3.5 mph - N/A   Overcast
9:51 AM 32.0 °F 28.7 °F 28.4 °F 87% 30.19 in 10.0 mi ESE 3.5 mph - N/A   Overcast
10:11 AM 32.0 °F 27.5 °F 28.4 °F 87% 30.18 in 10.0 mi SE 4.6 mph - N/A   Overcast
10:30 AM 33.8 °F 30.8 °F 28.4 °F 81% 30.18 in 10.0 mi SE 3.5 mph - N/A   Overcast
10:51 AM 35.6 °F 30.7 °F 30.2 °F 81% 30.17 in 10.0 mi SE 5.8 mph - N/A   Overcast
11:11 AM 35.6 °F 31.7 °F 28.4 °F 75% 30.16 in 10.0 mi SE 4.6 mph - N/A   Overcast
11:30 AM 35.6 °F 32.8 °F 30.2 °F 81% 30.16 in 10.0 mi ESE 3.5 mph - N/A   Overcast
11:51 AM 37.4 °F 32.8 °F 28.4 °F 70% 30.14 in 10.0 mi SSE 5.8 mph - N/A   Overcast
12:11 PM 37.4 °F 34.9 °F 30.2 °F 75% 30.13 in 10.0 mi SE 3.5 mph - N/A   Overcast
12:30 PM 37.4 °F 32.8 °F 28.4 °F 70% 30.10 in 10.0 mi SSE 5.8 mph - N/A   Overcast
12:51 PM 39.2 °F 34.2 °F 28.4 °F 65% 30.09 in 10.0 mi SE 6.9 mph - N/A   Mostly Cloudy
1:30 PM 42.8 °F 38.0 °F 28.4 °F 57% 30.06 in 10.0 mi SSE 8.1 mph - N/A   Clear
1:51 PM 42.8 °F 37.5 °F 28.4 °F 57% 30.05 in 10.0 mi SE 9.2 mph - N/A   Clear
2:11 PM 41.0 °F 34.3 °F 28.4 °F 61% 30.04 in 10.0 mi ESE 11.5 mph - N/A   Clear
2:31 PM 41.0 °F 35.8 °F 28.4 °F 61% 30.03 in 10.0 mi SSE 8.1 mph - N/A   Clear
2:51 PM 39.2 °F 35.0 °F 28.4 °F 65% 30.02 in 10.0 mi SSE 5.8 mph - N/A   Scattered Clouds
3:11 PM 39.2 °F 34.2 °F 28.4 °F 65% 30.01 in 10.0 mi SSE 6.9 mph - N/A   Mostly Cloudy
3:30 PM 39.2 °F 33.6 °F 28.4 °F 65% 30.00 in 10.0 mi SSE 8.1 mph - N/A   Overcast
3:51 PM 37.4 °F 32.1 °F 28.4 °F 70% 30.00 in 10.0 mi SE 6.9 mph - N/A   Overcast
4:11 PM 37.4 °F 32.8 °F 28.4 °F 70% 30.00 in 10.0 mi SSE 5.8 mph - N/A   Overcast
4:31 PM 37.4 °F 34.9 °F 28.4 °F 70% 29.98 in 10.0 mi SSE 3.5 mph - N/A   Overcast
4:51 PM 37.4 °F 33.8 °F 28.4 °F 70% 29.98 in 10.0 mi SE 4.6 mph - N/A   Overcast
5:11 PM 35.6 °F 31.7 °F 28.4 °F 75% 29.97 in 10.0 mi SE 4.6 mph - N/A   Overcast
5:31 PM 35.6 °F 29.2 °F 28.4 °F 75% 29.96 in 10.0 mi SSE 8.1 mph - N/A   Overcast
5:51 PM 35.6 °F 29.2 °F 28.4 °F 75% 29.95 in 10.0 mi SE 8.1 mph - N/A   Overcast
6:11 PM 35.6 °F 28.6 °F 28.4 °F 75% 29.93 in 10.0 mi SSE 9.2 mph - N/A   Overcast
6:31 PM 35.6 °F 29.2 °F 28.4 °F 75% 29.93 in 10.0 mi SSE 8.1 mph - N/A   Overcast
6:51 PM 35.6 °F 29.2 °F 28.4 °F 75% 29.92 in 10.0 mi SE 8.1 mph - N/A   Overcast
7:10 PM 35.6 °F 29.9 °F 28.4 °F 75% 29.91 in 10.0 mi SE 6.9 mph - N/A   Mostly Cloudy
7:31 PM 35.6 °F 29.9 °F 28.4 °F 75% 29.89 in 10.0 mi SSE 6.9 mph - N/A   Scattered Clouds
8:10 PM 35.6 °F 31.7 °F 30.2 °F 81% 29.87 in 10.0 mi SSE 4.6 mph - N/A   Overcast
8:31 PM 35.6 °F 31.7 °F 30.2 °F 81% 29.86 in 10.0 mi SSE 4.6 mph - N/A   Overcast
8:51 PM 35.6 °F 30.7 °F 30.2 °F 81% 29.85 in 10.0 mi South 5.8 mph - N/A   Overcast
9:31 PM 37.4 °F 33.8 °F 32.0 °F 81% 29.83 in 10.0 mi South 4.6 mph - N/A   Overcast
9:51 PM 37.4 °F 32.8 °F 33.8 °F 87% 29.82 in 10.0 mi South 5.8 mph - N/A   Overcast
10:10 PM 37.4 °F 32.1 °F 33.8 °F 87% 29.80 in 5.0 mi SSE 6.9 mph - N/A Rain Rain
10:31 PM 35.6 °F 32.8 °F 32.0 °F 87% 29.79 in 5.0 mi SSE 3.5 mph - 0.02 in Rain Light Rain
10:51 PM 33.8 °F 29.6 °F 32.0 °F 93% 29.78 in 3.0 mi SSE 4.6 mph - 0.04 in Snow Light Snow
11:10 PM 33.8 °F 29.6 °F 32.0 °F 93% 29.77 in 2.5 mi SSE 4.6 mph - 0.01 in Snow Light Snow
11:31 PM 33.8 °F 29.6 °F 32.0 °F 93% 29.76 in 1.8 mi SSE 4.6 mph - 0.03 in Snow Light Snow
11:51 PM 33.8 °F 28.6 °F 32.0 °F 93% 29.75 in 1.2 mi SSE 5.8 mph - 0.05 in Snow Light Snow